TimeCST,TemperatureF,Dew PointF,Humidity,Sea Level PressureIn,VisibilityMPH,Wind Direction,Wind SpeedMPH,Gust SpeedMPH,PrecipitationIn,Events,Conditions,WindDirDegrees,DateUTC
12:15 AM,33.8,30.2,87,29.79,10.0,SE,11.5,-,N/A,,Clear,130,2013-02-24 06:15:00
12:35 AM,32.0,28.4,87,29.79,10.0,SE,12.7,-,N/A,,Clear,130,2013-02-24 06:35:00
12:55 AM,32.0,28.4,87,29.79,10.0,ESE,11.5,-,N/A,,Clear,120,2013-02-24 06:55:00
1:15 AM,32.0,28.4,87,29.80,10.0,SE,9.2,-,N/A,,Clear,130,2013-02-24 07:15:00
1:35 AM,32.0,28.4,87,29.80,10.0,SE,8.1,-,N/A,,Clear,130,2013-02-24 07:35:00
1:55 AM,33.8,28.4,81,29.80,10.0,SE,11.5,-,N/A,,Clear,140,2013-02-24 07:55:00
2:15 AM,32.0,28.4,87,29.80,10.0,SE,10.4,-,N/A,,Clear,140,2013-02-24 08:15:00
2:35 AM,32.0,28.4,87,29.79,10.0,SE,10.4,-,N/A,,Clear,140,2013-02-24 08:35:00
2:55 AM,32.0,28.4,87,29.78,10.0,SE,9.2,-,N/A,,Clear,140,2013-02-24 08:55:00
3:15 AM,32.0,28.4,87,29.77,10.0,ESE,6.9,-,N/A,,Clear,120,2013-02-24 09:15:00
3:35 AM,32.0,28.4,87,29.76,10.0,SE,9.2,-,N/A,,Clear,140,2013-02-24 09:35:00
3:55 AM,33.8,28.4,81,29.76,10.0,SSE,16.1,-,N/A,,Clear,150,2013-02-24 09:55:00
4:15 AM,33.8,28.4,81,29.75,10.0,SE,12.7,-,N/A,,Clear,140,2013-02-24 10:15:00
4:35 AM,32.0,28.4,87,29.75,10.0,SE,13.8,18.4,N/A,,Clear,140,2013-02-24 10:35:00
4:55 AM,33.8,28.4,81,29.75,10.0,SSE,15.0,-,N/A,,Clear,150,2013-02-24 10:55:00
5:15 AM,33.8,28.4,81,29.74,10.0,SSE,13.8,-,N/A,,Clear,150,2013-02-24 11:15:00
5:35 AM,33.8,28.4,81,29.74,10.0,SSE,11.5,-,N/A,,Clear,160,2013-02-24 11:35:00
5:55 AM,33.8,28.4,81,29.75,10.0,SSE,8.1,-,N/A,,Clear,150,2013-02-24 11:55:00
6:15 AM,33.8,28.4,81,29.75,10.0,SE,13.8,17.3,N/A,,Clear,140,2013-02-24 12:15:00
6:35 AM,33.8,28.4,81,29.75,10.0,SSE,12.7,-,N/A,,Clear,150,2013-02-24 12:35:00
7:15 AM,33.8,28.4,81,29.77,10.0,SSE,10.4,16.1,N/A,,Clear,160,2013-02-24 13:15:00
7:35 AM,32.0,28.4,87,29.77,10.0,SSE,10.4,-,N/A,,Clear,160,2013-02-24 13:35:00
7:55 AM,32.0,28.4,87,29.77,10.0,SSE,5.8,-,N/A,,Clear,150,2013-02-24 13:55:00
8:15 AM,33.8,28.4,81,29.77,10.0,SE,5.8,-,N/A,,Clear,140,2013-02-24 14:15:00
8:35 AM,33.8,30.2,87,29.76,10.0,SSE,11.5,-,N/A,,Clear,160,2013-02-24 14:35:00
8:55 AM,35.6,30.2,81,29.76,10.0,SSE,12.7,-,N/A,,Clear,160,2013-02-24 14:55:00
9:15 AM,37.4,32.0,81,29.76,10.0,South,9.2,-,N/A,,Clear,180,2013-02-24 15:15:00
9:35 AM,37.4,32.0,81,29.76,10.0,South,15.0,21.9,N/A,,Clear,170,2013-02-24 15:35:00
9:55 AM,39.2,32.0,75,29.75,10.0,South,17.3,23.0,N/A,,Clear,170,2013-02-24 15:55:00
10:15 AM,39.2,32.0,75,29.75,10.0,South,13.8,-,N/A,,Clear,180,2013-02-24 16:15:00
10:35 AM,41.0,32.0,70,29.75,10.0,South,10.4,-,N/A,,Clear,170,2013-02-24 16:35:00
10:55 AM,41.0,32.0,70,29.74,10.0,SSE,12.7,-,N/A,,Clear,160,2013-02-24 16:55:00
11:15 AM,41.0,32.0,70,29.75,10.0,SSE,6.9,-,N/A,,Clear,160,2013-02-24 17:15:00
11:35 AM,42.8,32.0,66,29.76,10.0,South,6.9,-,N/A,,Clear,180,2013-02-24 17:35:00
11:55 AM,42.8,32.0,66,29.76,10.0,South,4.6,-,N/A,,Clear,190,2013-02-24 17:55:00
12:15 PM,44.6,32.0,61,29.75,10.0,SSE,4.6,-,N/A,,Clear,160,2013-02-24 18:15:00
12:35 PM,44.6,32.0,61,29.75,10.0,South,4.6,-,N/A,,Clear,170,2013-02-24 18:35:00
12:55 PM,44.6,32.0,61,29.74,10.0,South,4.6,-,N/A,,Clear,170,2013-02-24 18:55:00
1:15 PM,46.4,33.8,62,29.73,10.0,Calm,Calm,-,N/A,,Clear,0,2013-02-24 19:15:00
1:35 PM,46.4,33.8,62,29.73,10.0,SW,3.5,-,N/A,,Clear,220,2013-02-24 19:35:00
1:55 PM,48.2,33.8,58,29.72,10.0,Calm,Calm,-,N/A,,Clear,0,2013-02-24 19:55:00
2:15 PM,46.4,33.8,62,29.72,10.0,Calm,Calm,-,N/A,,Clear,0,2013-02-24 20:15:00
2:35 PM,48.2,33.8,58,29.72,10.0,Calm,Calm,-,N/A,,Clear,0,2013-02-24 20:35:00
2:55 PM,50.0,33.8,54,29.71,10.0,Calm,Calm,-,N/A,,Clear,0,2013-02-24 20:55:00
3:15 PM,50.0,33.8,54,29.71,10.0,NW,3.5,-,N/A,,Clear,320,2013-02-24 21:15:00
3:35 PM,50.0,33.8,54,29.71,10.0,NW,4.6,-,N/A,,Clear,310,2013-02-24 21:35:00
3:55 PM,50.0,35.6,58,29.70,10.0,NNW,8.1,-,N/A,,Clear,330,2013-02-24 21:55:00
4:15 PM,50.0,33.8,54,29.71,10.0,North,9.2,-,N/A,,Clear,350,2013-02-24 22:15:00
4:35 PM,46.4,35.6,66,29.72,10.0,NNW,11.5,-,N/A,,Clear,340,2013-02-24 22:35:00
4:55 PM,42.8,33.8,70,29.74,10.0,NNW,12.7,-,N/A,,Clear,330,2013-02-24 22:55:00
5:15 PM,41.0,33.8,76,29.76,10.0,NNW,13.8,-,N/A,,Mostly Cloudy,330,2013-02-24 23:15:00
5:35 PM,39.2,32.0,75,29.77,10.0,NNW,10.4,-,N/A,,Scattered Clouds,340,2013-02-24 23:35:00
5:55 PM,37.4,32.0,81,29.79,10.0,NNW,11.5,-,N/A,,Mostly Cloudy,340,2013-02-24 23:55:00
6:15 PM,35.6,32.0,87,29.79,10.0,NNW,13.8,18.4,N/A,,Overcast,330,2013-02-25 00:15:00
6:35 PM,35.6,32.0,87,29.81,10.0,NNW,11.5,-,N/A,,Scattered Clouds,340,2013-02-25 00:35:00
6:55 PM,33.8,32.0,93,29.83,10.0,NNW,11.5,16.1,N/A,,Mostly Cloudy,340,2013-02-25 00:55:00
7:15 PM,33.8,32.0,93,29.84,10.0,NNW,15.0,19.6,N/A,,Overcast,330,2013-02-25 01:15:00
7:35 PM,33.8,32.0,93,29.85,10.0,NW,13.8,19.6,N/A,,Overcast,320,2013-02-25 01:35:00
8:15 PM,32.0,32.0,100,29.85,4.0,NW,15.0,-,N/A,,Overcast,320,2013-02-25 02:15:00
8:35 PM,33.8,32.0,93,29.83,4.0,NNW,16.1,24.2,0.01,Snow,Light Snow,340,2013-02-25 02:35:00
8:55 PM,32.0,32.0,100,29.86,4.0,NNW,10.4,20.7,0.01,Thunderstorm,Overcast,330,2013-02-25 02:55:00
9:15 PM,32.0,32.0,100,29.88,1.2,NNW,9.2,-,0.08,Snow,Light Snow,330,2013-02-25 03:15:00
9:35 PM,32.0,32.0,100,29.88,1.5,NNW,13.8,17.3,0.18,Snow,Light Snow,340,2013-02-25 03:35:00
9:55 PM,32.0,32.0,100,29.91,1.5,NW,10.4,-,0.21,Snow,Light Snow,320,2013-02-25 03:55:00
10:15 PM,32.0,32.0,100,29.90,0.5,NW,10.4,-,0.05,Snow,Snow,320,2013-02-25 04:15:00
10:35 PM,32.0,32.0,100,29.84,1.2,North,11.5,-,0.10,Snow,Light Snow,350,2013-02-25 04:35:00
10:55 PM,32.0,32.0,100,29.87,3.0,NNW,11.5,17.3,0.11,Snow,Light Snow,330,2013-02-25 04:55:00
11:15 PM,32.0,32.0,100,29.85,4.0,North,11.5,-,N/A,Snow,Light Snow,350,2013-02-25 05:15:00
11:35 PM,32.0,32.0,100,29.85,2.5,North,12.7,-,0.01,Snow,Light Snow,350,2013-02-25 05:35:00
11:55 PM,32.0,32.0,100,29.84,3.0,North,12.7,17.3,0.01,Snow,Light Snow,350,2013-02-25 05:55:00